[[{"header":{"parameterUnit":"m.s-1","parameterCategory":1,"la1":30.2991,"la2":30.254,"lo1":-89.0895,"lo2":-89.0444,"dy":0.0017,"dx":0.0017,"nx":28,"ny":28,"refTime":"2024-12-07T09:00:00:Z","depth":0,"parameterNumber":2,"parameterNumberName":"U-component_of_WINDS"},"data":[0,0,0,0,0,0,0,0,0,0,0,0,0,0,0,0,0,0,0,0,0,0,0,0,0,0,0,0,0,0,0,0,0,0,0,0,0,0,0,0,0,0,0,0,0,0,0,0,0,0,0,0,0,0,0,0,0,0,-3.4239,-3.4239,0,-3.4293,-3.4293,-3.4294,-3.416,-3.4156,-3.4151,-3.4147,-3.4205,-3.421,-3.4215,0,0,0,0,0,0,0,0,0,0,0,0,0,-3.402,-3.4025,-3.4239,-3.4239,-3.424,-3.4293,-3.4293,-3.4294,-3.4161,-3.4155,-3.415,-3.4145,-3.4203,-3.4209,-3.4216,0,0,0,0,0,0,0,0,0,0,0,0,0,-3.4099,-3.4027,-3.4238,-3.418,-3.4175,-3.4292,-3.4293,-3.4294,-3.4162,-3.4155,-3.4149,-3.4143,-3.4201,-3.4209,-3.4217,-3.4394,0,0,-3.4242,-3.4245,0,0,0,0,0,0,0,0,-3.4095,-3.4107,-3.4188,-3.4184,-3.4179,-3.4213,-3.4237,-3.4328,-3.4163,-3.4167,-3.4147,-3.414,-3.4213,-3.422,-3.4244,-3.4397,-3.44,-3.4243,-3.4248,-3.4251,-3.4253,0,0,0,0,0,0,0,-3.4089,-3.4104,-3.426,-3.4189,-3.4184,-3.4151,-3.4155,-3.4254,-3.4225,-3.4166,-3.4156,-3.4164,-3.4209,-3.4236,-3.4244,-3.44,-3.4242,-3.425,-3.4255,-3.4258,-3.4702,-3.4709,0,0,0,0,0,0,-3.4091,-3.41,-3.4258,-3.4261,-3.412,-3.416,-3.4164,-3.4208,-3.4223,-3.4219,-3.417,-3.4158,-3.4225,-3.4235,-3.4246,-3.4455,-3.4251,-3.4259,-3.4263,-3.4695,-3.4704,-3.4711,0,0,0,0,0,0,-3.4087,-3.4107,-3.4256,-3.4178,-3.4195,-3.417,-3.4221,-3.4213,-3.424,-3.4226,-3.422,-3.4203,-3.4221,-3.4234,-3.4358,-3.4455,-3.4262,-3.427,-3.4687,-3.4698,-3.4707,-3.4876,0,0,0,0,0,0,-3.4081,-3.4106,-3.4173,-3.4181,-3.42,-3.4368,-3.4227,-3.4218,-3.4254,-3.4239,-3.4256,-3.4252,-3.4217,-3.4347,-3.4366,-3.4463,-3.4276,-3.4678,-3.4692,-3.4704,-3.4861,-3.489,-3.4915,0,0,0,0,0,-3.4074,-3.4219,-3.4177,-3.4197,-3.4283,-3.4374,-3.4385,-3.434,-3.4262,-3.433,-3.4321,-3.4252,-3.4441,-3.4361,-3.4382,-3.4482,-3.4672,-3.4688,-3.4703,-3.4849,-3.4885,-3.4915,0,0,0,0,0,0,-3.4224,-3.4219,-3.4173,-3.4324,-3.4351,-3.4351,-3.4435,-3.4379,-3.4429,-3.4413,-3.4356,-3.4361,-3.4496,-3.4501,-3.4412,-3.4655,-3.4543,-3.4564,-3.4647,-3.4681,-3.4707,-3.4704,-3.4283,0,0,0,0,0,-3.4275,-3.4349,-3.434,-3.4475,-3.449,-3.4461,-3.4499,-3.4462,-3.4487,-3.4498,-3.4498,-3.4526,-3.4591,-3.4636,-3.4695,-3.486,-3.4862,-3.4939,-3.4966,-3.4989,-3.5008,-3.5096,-3.5131,-3.4762,-3.4762,-3.4761,0,0,-3.4381,-3.4387,-3.4437,-3.4505,-3.4521,-3.46,-3.4471,-3.456,-3.4617,-3.4511,-3.4629,-3.463,-3.4657,-3.4803,-3.4867,-3.4811,-3.511,-3.5008,-3.5026,-3.5033,-3.5115,-3.515,-3.5182,-3.4772,-3.477,-3.4769,0,0,-3.4614,-3.4625,-3.4739,-3.4757,-3.4783,-3.4762,-3.4789,-3.4798,-3.4795,-3.4912,-3.4834,-3.4901,-3.5015,-3.5038,-3.5064,-3.5304,-3.5243,-3.5325,-3.5467,-3.5553,-3.5583,-3.5608,-3.5695,-3.5727,-3.5343,-3.5344,-3.5344,0,-3.4742,-3.4857,-3.4804,-3.4898,-3.4931,-3.4837,-3.4952,-3.4972,-3.5017,-3.5041,-3.4977,-3.5118,-3.5129,-3.5279,-3.5338,-3.5362,-3.5392,-3.5324,-3.5582,-3.5607,-3.5631,-3.5713,-3.5746,-3.5354,-3.5353,-3.5352,-3.5351,0,-3.5014,-3.5095,-3.5183,-3.5228,-3.527,-3.5374,-3.5337,-3.5386,-3.5345,-3.5331,-3.5451,-3.5461,-3.5521,-3.5553,-3.5515,-3.5698,-3.5663,-3.5592,-3.5479,-3.5677,-3.5753,-3.5784,-3.5368,-3.5364,-3.5362,-3.5359,0,0,-3.5346,-3.5359,-3.5392,-3.5411,-3.5432,-3.5494,-3.5593,-3.5651,-3.5694,-3.5727,-3.581,-3.5907,-3.5841,-3.5871,-3.5834,-3.591,-3.6101,-3.5829,-3.5829,-3.5881,-3.6305,-3.636,-3.6397,-3.6059,-3.6064,-3.6069,-3.6303,0,-3.5577,-3.5748,-3.5703,-3.5873,-3.5948,-3.5859,-3.5945,-3.5967,-3.5957,-3.6018,-3.6005,-3.6077,-3.5983,-3.6001,-3.6072,-3.6063,-3.6185,-3.6045,-3.6136,-3.614,-3.6135,-3.6437,-3.6495,-3.6716,-3.6332,-3.6337,-3.6341,0,-3.5871,-3.5915,-3.6093,-3.6101,-3.613,-3.6209,-3.6258,-3.6317,-3.6341,-3.6327,-3.636,-3.6307,-3.6405,-3.629,-3.6425,-3.633,-3.6364,-3.6366,-3.6373,-3.6382,-3.6254,-3.6456,-3.6785,-3.6819,-3.6387,-3.6383,-3.638,0,-3.6097,-3.62,-3.632,-3.6339,-3.6351,-3.6408,-3.6416,-3.6433,-3.647,-3.6513,-3.6537,-3.6591,-3.6621,-3.6664,-3.6627,-3.6546,-3.6768,-3.6649,-3.6761,-3.6762,-3.6814,-3.6812,-3.7155,-3.6833,-3.6832,-3.6832,-3.6831,0,-3.6362,-3.6475,-3.6422,-3.6496,-3.662,-3.6566,-3.669,-3.6687,-3.6703,-3.6775,-3.67,-3.6769,-3.6715,-3.678,-3.6751,-3.6868,-3.6881,-3.6874,-3.6865,-3.6882,-3.6883,-3.6906,-3.689,-3.684,-3.6838,-3.6837,-3.6835,0,-3.6637,-3.6606,-3.6731,-3.6731,-3.6734,-3.6825,-3.6825,-3.6894,-3.6877,-3.6969,-3.6987,-3.6961,-3.7033,-3.6999,-3.7075,-3.7055,-3.7206,-3.7176,-3.7199,-3.7192,-3.7306,-3.7296,-3.7678,-3.7726,-3.7371,-3.7374,-3.7377,0,-3.6809,-3.6893,-3.6903,-3.6945,-3.6958,-3.7028,-3.7065,-3.7015,-3.7057,-3.7089,-3.7155,-3.722,-3.727,-3.7389,-3.7377,-3.7434,-3.7406,-3.7535,-3.7414,-3.7428,-3.741,-3.7406,-3.7415,-3.7561,-3.7565,-3.7568,-3.7571,0,-3.7118,-3.7098,-3.7155,-3.7207,-3.7254,-3.7293,-3.7325,-3.7364,-3.7315,-3.7366,-3.7439,-3.7477,-3.7554,-3.762,-3.767,-3.7677,-3.7618,-3.7609,-3.7638,-3.7657,-3.7667,-3.7665,-3.7268,-3.7601,-3.7598,-3.7596,-3.7594,-3.7593,-3.7348,-3.7419,-3.7437,-3.7503,-3.7521,-3.7553,-3.7617,-3.7608,-3.7667,-3.7725,-3.7691,-3.7777,-3.7796,-3.7857,-3.7873,-3.7938,-3.7887,-3.7929,-3.794,-3.7952,-3.7968,-3.7655,-3.7947,-3.7946,-3.7945,-3.7944,-3.7944,0,-3.7655,-3.7661,-3.7722,-3.7769,-3.7821,-3.7758,-3.779,-3.7838,-3.7914,-3.7937,-3.7987,-3.807,-3.8134,-3.8126,-3.8184,-3.8238,-3.8212,-3.8255,-3.8252,-3.8255,-3.8009,-3.7979,-3.8275,-3.8275,-3.8275,-3.8275,-3.8275,-3.8275,-3.7821,-3.7938,-3.792,-3.8046,-3.8051,-3.8134,-3.8158,-3.8186,-3.8204,-3.8301,-3.8353,-3.8347,-3.8358,-3.8415,-3.8471,-3.8467,-3.8492,-3.8547,-3.8533,-3.8305,-3.8272,-3.8241,-3.8212,-3.8552,-3.8553,-3.8773,-3.8775,-3.8776]},{"header":{"parameterUnit":"m.s-1","parameterCategory":1,"la1":30.2991,"la2":30.254,"lo1":-89.0895,"lo2":-89.0444,"dy":0.0017,"dx":0.0017,"nx":28,"ny":28,"refTime":"2024-12-07T09:00:00:Z","depth":0,"parameterNumber":3,"parameterNumberName":"V-component_of_WINDS"},"data":[0,0,0,0,0,0,0,0,0,0,0,0,0,0,0,0,0,0,0,0,0,0,0,0,0,0,0,0,0,0,0,0,0,0,0,0,0,0,0,0,0,0,0,0,0,0,0,0,0,0,0,0,0,0,0,0,0,0,-4.3832,-4.3832,0,-4.3889,-4.3889,-4.389,-4.3838,-4.3836,-4.3834,-4.3832,-4.3886,-4.389,-4.3893,0,0,0,0,0,0,0,0,0,0,0,0,0,-4.3671,-4.3675,-4.3831,-4.3832,-4.3833,-4.3889,-4.389,-4.389,-4.3838,-4.3836,-4.3833,-4.3831,-4.3885,-4.3889,-4.3893,0,0,0,0,0,0,0,0,0,0,0,0,0,-4.3736,-4.3676,-4.3831,-4.3814,-4.3813,-4.3889,-4.389,-4.389,-4.3839,-4.3836,-4.3832,-4.383,-4.3884,-4.3889,-4.3894,-4.3989,0,0,-4.391,-4.3912,0,0,0,0,0,0,0,0,-4.3732,-4.3742,-4.3816,-4.3815,-4.3814,-4.3853,-4.3853,-4.3923,-4.384,-4.3829,-4.3832,-4.3828,-4.3878,-4.3883,-4.39,-4.3991,-4.3994,-4.391,-4.3913,-4.3915,-4.3917,0,0,0,0,0,0,0,-4.3728,-4.3739,-4.3854,-4.3817,-4.3816,-4.3801,-4.3807,-4.3866,-4.387,-4.3829,-4.3826,-4.3834,-4.3876,-4.3896,-4.3901,-4.3994,-4.391,-4.3914,-4.3918,-4.392,-4.4163,-4.4166,0,0,0,0,0,0,-4.3726,-4.3736,-4.3852,-4.3856,-4.3765,-4.3807,-4.3813,-4.3844,-4.3869,-4.387,-4.3836,-4.3831,-4.3888,-4.3895,-4.3903,-4.4014,-4.3915,-4.392,-4.3923,-4.416,-4.4164,-4.4167,0,0,0,0,0,0,-4.3723,-4.3737,-4.385,-4.3795,-4.3808,-4.3813,-4.3848,-4.3846,-4.3866,-4.3874,-4.3874,-4.3856,-4.3886,-4.3896,-4.3967,-4.4015,-4.3922,-4.3927,-4.4156,-4.4161,-4.4166,-4.4238,0,0,0,0,0,0,-4.3719,-4.3736,-4.3774,-4.3796,-4.3811,-4.3915,-4.3851,-4.385,-4.3875,-4.3869,-4.3892,-4.3893,-4.3885,-4.396,-4.3973,-4.4021,-4.3931,-4.4151,-4.4158,-4.4164,-4.4231,-4.4245,-4.4257,0,0,0,0,0,-4.3713,-4.3791,-4.3776,-4.379,-4.3859,-4.3918,-4.3926,-4.3916,-4.3879,-4.3916,-4.3921,-4.3893,-4.4008,-4.3968,-4.3981,-4.4032,-4.4148,-4.4156,-4.4163,-4.4226,-4.4242,-4.4256,0,0,0,0,0,0,-4.3773,-4.3794,-4.3777,-4.3865,-4.3891,-4.3909,-4.3955,-4.3934,-4.3969,-4.3962,-4.3946,-4.3951,-4.4027,-4.4036,-4.3991,-4.4124,-4.4072,-4.4083,-4.4115,-4.413,-4.4143,-4.4138,-4.3935,0,0,0,0,0,-4.3797,-4.3846,-4.386,-4.3937,-4.395,-4.3951,-4.3976,-4.3966,-4.3991,-4.4001,-4.4011,-4.4035,-4.4076,-4.4104,-4.4143,-4.4233,-4.4236,-4.4274,-4.4286,-4.4297,-4.4306,-4.4352,-4.4368,-4.4192,-4.4192,-4.4192,0,0,-4.3846,-4.3864,-4.3895,-4.3949,-4.3967,-4.4016,-4.396,-4.4014,-4.4049,-4.4008,-4.4077,-4.4085,-4.411,-4.4191,-4.4227,-4.4201,-4.4355,-4.4306,-4.4315,-4.4318,-4.4361,-4.4378,-4.4392,-4.4198,-4.4197,-4.4196,0,0,-4.3961,-4.398,-4.4044,-4.4064,-4.4092,-4.4092,-4.4107,-4.4129,-4.4134,-4.4202,-4.4172,-4.4213,-4.4285,-4.4304,-4.4323,-4.4443,-4.4417,-4.4455,-4.4521,-4.4566,-4.458,-4.4592,-4.4633,-4.4648,-4.4465,-4.4465,-4.4465,0,-4.4018,-4.4091,-4.408,-4.4136,-4.416,-4.4126,-4.419,-4.4209,-4.4248,-4.4265,-4.4236,-4.4325,-4.4339,-4.4423,-4.4452,-4.4469,-4.4485,-4.4452,-4.4579,-4.4591,-4.4602,-4.4641,-4.4657,-4.4469,-4.4469,-4.4468,-4.4468,0,-4.4159,-4.421,-4.4259,-4.4298,-4.4328,-4.4388,-4.4383,-4.4414,-4.4401,-4.4403,-4.4471,-4.4488,-4.4529,-4.4548,-4.4535,-4.4629,-4.4612,-4.4582,-4.4529,-4.4623,-4.4659,-4.4674,-4.4476,-4.4474,-4.4473,-4.4472,0,0,-4.4313,-4.4345,-4.4363,-4.438,-4.4408,-4.4447,-4.4504,-4.4545,-4.457,-4.4598,-4.4644,-4.4706,-4.4677,-4.4699,-4.4688,-4.4727,-4.4819,-4.4691,-4.4692,-4.4713,-4.4921,-4.4943,-4.496,-4.4802,-4.4805,-4.4807,-4.4918,0,-4.4427,-4.4528,-4.4519,-4.4614,-4.466,-4.4628,-4.4677,-4.4699,-4.4702,-4.474,-4.4742,-4.4785,-4.4746,-4.4758,-4.4796,-4.48,-4.486,-4.4792,-4.4843,-4.4845,-4.4837,-4.4979,-4.5003,-4.5107,-4.4932,-4.4935,-4.4936,0,-4.4574,-4.4607,-4.4707,-4.4727,-4.4746,-4.4791,-4.4826,-4.4864,-4.4887,-4.4886,-4.491,-4.4891,-4.4947,-4.4894,-4.4969,-4.4922,-4.4943,-4.4948,-4.4951,-4.4955,-4.4896,-4.4985,-4.514,-4.5155,-4.4959,-4.4957,-4.4955,0,-4.4674,-4.4744,-4.4812,-4.4828,-4.4853,-4.4885,-4.4897,-4.4917,-4.4941,-4.4972,-4.4987,-4.5024,-4.5043,-4.5071,-4.5062,-4.5025,-4.5138,-4.5085,-4.5137,-4.5138,-4.5162,-4.516,-4.532,-4.5177,-4.5177,-4.5177,-4.5177,0,-4.4801,-4.4863,-4.4858,-4.49,-4.4967,-4.4955,-4.5021,-4.5029,-4.5047,-4.5088,-4.5062,-4.5101,-4.5088,-4.5126,-4.5119,-4.5181,-4.519,-4.5189,-4.5187,-4.5191,-4.5191,-4.5203,-4.5195,-4.5181,-4.518,-4.5179,-4.5179,0,-4.4925,-4.4924,-4.4996,-4.5014,-4.5019,-4.5068,-4.5082,-4.5121,-4.5122,-4.5174,-4.5185,-4.5186,-4.5229,-4.5223,-4.5271,-4.5266,-4.5343,-4.5332,-4.5335,-4.5332,-4.5384,-4.5379,-4.5557,-4.5578,-4.5423,-4.5424,-4.5426,0,-4.5005,-4.5052,-4.5075,-4.5102,-4.5116,-4.5159,-4.5183,-4.5172,-4.5199,-4.5228,-4.5262,-4.5303,-4.5335,-4.5404,-4.5408,-4.5444,-4.5432,-4.5492,-4.5437,-4.544,-4.5431,-4.5428,-4.5431,-4.5503,-4.5504,-4.5506,-4.5507,0,-4.5148,-4.5145,-4.5183,-4.522,-4.5251,-4.5279,-4.5305,-4.5327,-4.5318,-4.5349,-4.5393,-4.5418,-4.5466,-4.5506,-4.554,-4.5549,-4.5526,-4.5525,-4.5538,-4.5542,-4.5542,-4.5541,-4.5363,-4.552,-4.5519,-4.5518,-4.5517,-4.5517,-4.5251,-4.5291,-4.5313,-4.5355,-4.5373,-4.5397,-4.5434,-4.5439,-4.5476,-4.5515,-4.5506,-4.5555,-4.5575,-4.5617,-4.5631,-4.5668,-4.5645,-4.5666,-4.5671,-4.5675,-4.5681,-4.5537,-4.5674,-4.5674,-4.5673,-4.5673,-4.5673,0,-4.5391,-4.5404,-4.5443,-4.548,-4.5512,-4.5489,-4.5516,-4.5544,-4.5588,-4.5609,-4.5641,-4.569,-4.5728,-4.5735,-4.5771,-4.5799,-4.5789,-4.5808,-4.5805,-4.5807,-4.5699,-4.5683,-4.5816,-4.5816,-4.5815,-4.5815,-4.5815,-4.5815,-4.5468,-4.5533,-4.5532,-4.5605,-4.5616,-4.5665,-4.5682,-4.5703,-4.572,-4.5776,-4.5808,-4.5813,-4.5827,-4.5864,-4.5897,-4.5898,-4.5911,-4.5935,-4.5931,-4.583,-4.5815,-4.5802,-4.5786,-4.5938,-4.5938,-4.6036,-4.6037,-4.6037]}]]